Location: Cruquius
(52.3348°N, 4.6319°E)
Time: 21:40:20
(UTC+00:00)

NOSS 3-3 (C) - Pass Details

Date: 01 October 2021
Orbit: 801 x 1411 km, 63.4° (Epoch: 05 October)

Event Time Altitude Azimuth Distance (km) Brightness Sun altitude
Rises 19:11:55 0° 313° (NW) 3,955 8.4 -18.0°
Reaches altitude 10° 19:14:34 10° 308° (NW) 3,078 7.7 -18.3°
Maximum altitude 19:21:39 48° 238° (WSW) 1,628 5.4 -19.4°
Drops below altitude 10° 19:29:35 10° 168° (SSE) 3,426 6.5 -20.5°
Enters shadow 19:30:16 - 166° (SSE) 3,647 6.6 -20.6°
